Regional Weather Roundup
Issued by NWS Upton, NY

Current Version | Previous Version | Graphics & Text | Print | Product List | Glossary Off
Versions: 1 2 3 4 5 6 7 8 9 10 11 12 13 14 15 16 17 18 19 20 21 22 23 24 25 26

000
ASUS41 KOKX 210805
RWROKX

REGIONAL WEATHER ROUNDUP
NATIONAL WEATHER SERVICE NEW YORK NY
400 AM EDT MON APR 21 2014

NOTE: "FAIR" INDICATES FEW OR NO CLOUDS BELOW 12,000 FEET WITH NO
SIGNIFICANT WEATHER AND/OR OBSTRUCTIONS TO VISIBILITY.

NYZ071-072-176-178-NJZ106-104-210900-
NEW YORK CITY METRO AREA


CITY           SKY/WX    TMP DP  RH WIND       PRES   REMARKS
CENTRAL PARK   CLEAR     44  23  43 NE5       30.28S
LAGUARDIA APRT CLEAR     43  29  57 NE7       30.25F
KENNEDY INTL   CLEAR     39  26  59 NE5       30.27S
NEWARK/LIBERTY PTCLDY    42  28  57 NE5       30.26S
TETERBORO      CLEAR     42  28  57 N3        30.25F
$$

NYZ177-179-078>081-210900-
LONG ISLAND NEW YORK

CITY           SKY/WX    TMP DP  RH WIND       PRES   REMARKS
FARMINGDALE    CLEAR     35  28  75 N5        30.26S WCI  31
ISLIP          CLEAR     35  28  75 CALM      30.24F
SHIRLEY        CLEAR     30  27  88 CALM      30.26F
WESTHAMPTON    CLEAR     25  20  81 CALM      30.27F
MONTAUK POINT    N/A     35  31  85 CALM      30.27F
$$

NYZ052-065-067-210900-
HUDSON VALLEY

CITY           SKY/WX    TMP DP  RH WIND       PRES   REMARKS
WHITE PLAINS   CLEAR     35  29  78 CALM      30.24F
NEWBURGH       CLEAR     41  30  65 CALM      30.27S
MONTGOMERY     CLEAR     33  29  85 CALM      30.23F
POUGHKEEPSIE   CLEAR     36  29  75 CALM      30.24F
ALBANY         PTCLDY    44  27  51 S8        30.20F
$$

NJZ001-105-106-008-010-013-015-019>022-104-210900-
NEW JERSEY

CITY           SKY/WX    TMP DP  RH WIND       PRES   REMARKS
NEWARK/LIBERTY PTCLDY    42  28  57 NE5       30.26S
TETERBORO      CLEAR     42  28  57 N3        30.25F
CALDWELL       CLEAR     35  28  75 CALM      30.26F
MORRISTOWN     CLEAR     34  30  86 CALM      30.25F
SOMERVILLE     CLEAR     30  27  88 NW3       30.24F
LINDEN         FAIR      41  29  63 CALM      30.28S
SUSSEX         CLEAR     32  28  85 CALM      30.24F
ANDOVER          N/A     32  28  85 CALM      30.24F
TRENTON        CLEAR     36  25  64 N6        30.24F WCI  31
MILLVILLE      CLEAR     37  30  75 NE5       30.22F WCI  33
ATLANTIC CITY  CLEAR     32  28  85 CALM      30.23F
WRIGHTSTOWN    CLEAR     33  26  75 NE5       30.22F WCI  28
TOMS RIVER     CLEAR     28  25  86 CALM      30.24F
BELMAR         CLEAR     37  28  70 N5        30.24S WCI  34
$$

PAZ047>061-062-071-210900-
EASTERN PENNSYLVANIA

CITY           SKY/WX    TMP DP  RH WIND       PRES   REMARKS
PHILADELPHIA   CLEAR     41  23  48 NE6       30.25F
ALLENTOWN      CLEAR     35  27  72 N3        30.24F
SCRANTON       CLEAR     39  22  50 S6        30.20F WCI  35
$$

CTZ002-004>006-009-010-012-RIZ004-006-007-MAZ004-011-015-210900-
SOUTHERN NEW ENGLAND
 IN CT

CITY           SKY/WX    TMP DP  RH WIND       PRES   REMARKS
BRADLEY INTL   PTCLDY    35  27  72 CALM      30.25F
HARTFORD       CLEAR     33  28  81 CALM      30.27S
DANBURY        CLEAR     31  28  89 CALM      30.26F
WTRBRY/OXFORD  CLEAR     30  25  80 CALM      30.26F
BRIDGEPORT     CLEAR     37  32  82 N5        30.27S WCI  33
MERIDEN        CLEAR     32  28  85 CALM      30.27S
NEW HAVEN      CLEAR     34  30  85 CALM      30.26F
CHESTER        FAIR      34  30  86 CALM      30.25F
GROTON         CLEAR     33  31  92 N3        30.26F
WILLIMANTIC    CLEAR     31  27  85 CALM      30.26F

 IN RI

CITY           SKY/WX    TMP DP  RH WIND       PRES   REMARKS
PROVIDENCE     CLEAR     34  30  85 SW3       30.26F
BLOCK ISLAND   CLEAR     37  34  87 SE6       30.25S WCI  33
WESTERLY       PTCLDY    31  29  92 CALM      30.26F

 IN MA

CITY           SKY/WX    TMP DP  RH WIND       PRES   REMARKS
BOSTON         CLEAR     38  32  79 SW6       30.27F WCI  33
WORCESTER      CLEAR     36  24  62 W10       30.22F WCI  28
WESTFIELD      CLEAR     32  26  78 CALM      30.24F
PROVINCETOWN   CLEAR     30  28  93 MISG      30.27F
NANTUCKET      CLEAR     36  33  89 E6        30.26F WCI  31
$$

ANZ330-335-338-340-345-350-353-355-210900-
COASTAL MARINE OBSERVATIONS


STATION/POSITION TIME  SKY/WX   TEMP    WIND        PRES    VSBY  WAVE
                                AIR SEA DIR/SP/G                  HT/PER
                 (UTC)          (F)     (DEG/KT/KT) (MB)    (MI)  (FT/S)
NY HARB ENTRANCE 0800            43 44  VRB  8/ 10  1024.3
4S FIRE IS       0700               45                N/A           4/ 8
23SW MTP         0800            42 43  110/ 10/ 12 1023.8          4/ 8
HUDSON CANYON    0700            44 44   60/ 14/ 16 1023.3          6/ 9
EXECUTION ROCKS  0800            41 44   10/  6/  8   N/A
WESTERN LI SOUND 0800            42      10/  4/  6   N/A           0
CENTRAL LI SOUND 0700            41 42   70/  6/  8   N/A           0
EASTERN LI SOUND NOT AVBL
ROBBINS REEF     0800            44     350/  6/  7   N/A
$$


>>>>>>>>>>>>>>>>>>>>>>>>>>>> KEY <<<<<<<<<<<<<<<<<<<<<<<<<<<
>                                                          <
>     SKY/WX - SKY CONDITION/PRESENT WEATHER               <
>     TMP    - TEMPERATURE IN FAHRENHEIT                   <
>     DP     - DEWPOINT IN FAHRENHEIT                      <
>     RH     - RELATIVE HUMIDITY IN PERCENT                <
>     WIND   - DIRECTION AND SPEED IN MPH                  <
>     PRES   - MEAN SEA LEVEL PRESSURE IN INCHES OF HG     <
>     WCI    - WIND CHILL INDEX                            <
>     VSB    - VISIBILITY IN MILES                         <
>     HX     - HEAT INDEX                                  <
>     TC     - TEMPERATURE IN CELSIUS                      <
>     VRB    - VARIABLE WIND DIRECTION                     <
>                                                          <
>>>>>>>>>>>>>>>>>>>>>>>>>>>> KEY <<<<<<<<<<<<<<<<<<<<<<<<<<<





USA.gov is the U.S. government's official web portal to all federal, state and local government web resources and services.